Location: Unspecified
(41.5000°N, 0.0000°E)
Time: 21:26:57
(UTC+00:00)

ISS - Visible Passes

Search period start: 24 May 2019 00:00
Search period end: 03 June 2019 00:00
Orbit: 408 x 418 km, 51.6° (Epoch: 25 May)

Date Brightness Start Highest point End Pass type
(mag) Time Alt. Az. Time Alt. Az. Time Alt. Az.
24 May -0.8 20:38:03 10° NW 20:40:22 17° NNW 20:42:41 10° NNE visible
24 May -0.8 22:15:53 10° NNW 22:18:01 16° N 22:20:10 10° NE visible
24 May -1.0 23:52:12 10° NW 23:53:08 17° NW 23:53:08 17° NW visible
25 May -1.1 19:48:03 10° WNW 19:50:39 21° NNW 19:53:17 10° NE visible
25 May -0.8 21:26:18 10° NNW 21:28:16 15° N 21:30:14 10° NE visible
25 May -1.5 23:02:50 10° NW 23:05:08 25° N 23:05:08 25° N visible
26 May -0.8 20:36:32 10° NW 20:38:29 15° N 20:40:27 10° NNE visible
26 May -1.5 22:13:27 10° NW 22:16:06 21° NNE 22:17:09 18° NE visible
26 May -0.7 23:49:45 10° NW 23:49:57 11° NW 23:49:57 11° NW visible
27 May -1.1 21:24:02 10° NNW 21:26:21 17° NNE 21:28:40 10° NE visible
27 May -1.7 23:00:17 10° NW 23:02:00 27° NW 23:02:00 27° NW visible
28 May -1.0 20:34:30 10° NNW 20:36:34 15° N 20:38:38 10° NE visible
28 May -2.4 22:10:51 10° NW 22:13:59 34° NNE 22:14:05 34° NNE visible
29 May -1.8 21:21:28 10° NW 21:24:17 25° NNE 21:26:10 16° ENE visible
29 May -1.4 22:57:52 10° WNW 22:58:59 19° WNW 22:58:59 19° WNW visible
30 May -1.4 20:32:02 10° NNW 20:34:33 19° NNE 20:37:05 10° ENE visible
30 May -3.2 22:08:17 10° NW 22:11:05 58° NW 22:11:05 58° NW visible
31 May -3.0 21:18:48 10° NW 21:22:03 46° NNE 21:23:14 31° E visible
31 May -0.8 22:55:53 10° W 22:56:03 11° W 22:56:03 11° W visible
01 Jun -2.3 20:29:21 10° NW 20:32:23 31° NNE 20:35:24 10° E visible
01 Jun -2.4 22:05:57 10° WNW 22:08:13 31° W 22:08:13 31° W visible
02 Jun -3.8 21:16:15 10° WNW 21:19:34 71° SW 21:20:25 46° SSE visible
